Location: Błonie
(52.1971°N, 20.6200°E)
Time: 05:31:32
(UTC+01:00)

ISS - Pass Details

Date: 30 January 2019
Orbit: 403 x 411 km, 51.6° (Epoch: 21 February)

Event Time Altitude Azimuth Distance (km) Brightness Sun altitude
Rises 19:00:57 0° 273° (W) 2,339 1.5 -24.5°
Reaches altitude 10° 19:03:02 10° 272° (W) 1,479 0.1 -24.8°
Enters shadow 19:04:57 32° 269° (W) 735 -2.0 -25.1°
